• In Germany
  • List of Countries
  • For 7 days
  • Water Temperature
  • Satellite Maps
  • Weather Map
  • Weather Widgets
  • user-avatar
    Login

    Hourly Weather Viedma

    Today, 28 May, Monday

    Time Temperature Precipitation Wind Pressure Humidity
    00:00 +14°C° 0 mm 5 mps 754 mmHg 52%
    01:00 +14°C° 0 mm 6 mps 754 mmHg 55%
    02:00 +14°C° 0 mm 6 mps 754 mmHg 57%
    03:00 +14°C° 0 mm 5 mps 753 mmHg 62%
    04:00 +14°C° 0 mm 5 mps 753 mmHg 66%
    05:00 +14°C° 0 mm 5 mps 753 mmHg 71%
    06:00 +14°C° 0 mm 5 mps 753 mmHg 74%
    07:00 +13°C° 0 mm 4 mps 753 mmHg 77%
    08:00 +13°C° 0 mm 4 mps 753 mmHg 80%
    09:00 +14°C° 0 mm 5 mps 753 mmHg 73%
    10:00 +15°C° 0 mm 5 mps 754 mmHg 65%
    11:00 +16°C° 0 mm 6 mps 754 mmHg 57%
    12:00 +17°C° 0 mm 7 mps 754 mmHg 49%
    13:00 +17°C° 0 mm 7 mps 754 mmHg 41%
    14:00 +18°C° 0 mm 8 mps 753 mmHg 33%
    15:00 +17°C° 0 mm 7 mps 754 mmHg 34%
    16:00 +16°C° 0 mm 5 mps 754 mmHg 36%
    17:00 +15°C° 0 mm 4 mps 754 mmHg 37%
    18:00 +15°C° 0 mm 4 mps 755 mmHg 37%
    19:00 +14°C° 0 mm 4 mps 755 mmHg 37%
    20:00 +14°C° 0 mm 4 mps 755 mmHg 37%
    21:00 +14°C° 0 mm 4 mps 755 mmHg 38%
    22:00 +13°C° 0 mm 4 mps 755 mmHg 38%
    23:00 +13°C° 0 mm 4 mps 755 mmHg 39%

    Tomorrow, 29 May, Tuesday

    Time Temperature Precipitation Wind Pressure Humidity
    00:00 +13°C° 0 mm 4 mps 755 mmHg 40%
    01:00 +12°C° 0 mm 4 mps 755 mmHg 41%
    02:00 +12°C° 0 mm 4 mps 755 mmHg 42%
    03:00 +12°C° 0.1 mm 4 mps 755 mmHg 48%
    04:00 +12°C° 0.1 mm 4 mps 755 mmHg 54%
    05:00 +12°C° 0.1 mm 4 mps 756 mmHg 60%
    06:00 +12°C° 0.4 mm 4 mps 756 mmHg 67%
    07:00 +11°C° 0.4 mm 4 mps 756 mmHg 74%
    08:00 +11°C° 0.4 mm 4 mps 756 mmHg 81%
    09:00 +11°C° 0.5 mm 3 mps 757 mmHg 80%
    10:00 +11°C° 0.5 mm 3 mps 757 mmHg 80%
    11:00 +11°C° 0.5 mm 3 mps 757 mmHg 79%
    12:00 +11°C° 0.3 mm 3 mps 757 mmHg 79%
    13:00 +11°C° 0.3 mm 3 mps 756 mmHg 78%
    14:00 +11°C° 0.3 mm 3 mps 756 mmHg 78%
    15:00 +11°C° 0 mm 3 mps 756 mmHg 78%
    16:00 +11°C° 0 mm 3 mps 757 mmHg 79%
    17:00 +11°C° 0 mm 3 mps 757 mmHg 80%
    18:00 +11°C° 0 mm 3 mps 757 mmHg 79%
    19:00 +11°C° 0 mm 3 mps 758 mmHg 78%
    20:00 +12°C° 0 mm 2 mps 758 mmHg 78%
    21:00 +10°C° 0 mm 3 mps 759 mmHg 76%
    22:00 +10°C° 0 mm 3 mps 759 mmHg 73%
    23:00 +10°C° 0 mm 4 mps 759 mmHg 71%

    Day after tomorrow, 30 May, Wednesday

    Time Temperature Precipitation Wind Pressure Humidity
    00:00 +10°C° 0 mm 4 mps 760 mmHg 68%
    01:00 +10°C° 0 mm 4 mps 760 mmHg 64%
    02:00 +9°C° 0 mm 5 mps 761 mmHg 61%
    03:00 +9°C° 0 mm 5 mps 761 mmHg 60%
    04:00 +8°C° 0 mm 5 mps 761 mmHg 58%
    05:00 +8°C° 0 mm 6 mps 761 mmHg 57%
    06:00 +8°C° 0 mm 6 mps 761 mmHg 58%
    07:00 +8°C° 0 mm 5 mps 762 mmHg 59%
    08:00 +8°C° 0 mm 5 mps 762 mmHg 60%
    09:00 +9°C° 0 mm 6 mps 763 mmHg 57%
    10:00 +10°C° 0 mm 7 mps 763 mmHg 53%
    11:00 +11°C° 0 mm 7 mps 764 mmHg 49%
    12:00 +11°C° 0 mm 7 mps 764 mmHg 51%
    13:00 +11°C° 0 mm 8 mps 764 mmHg 52%
    14:00 +11°C° 0 mm 8 mps 764 mmHg 53%
    15:00 +10°C° 0.1 mm 7 mps 764 mmHg 58%
    16:00 +9°C° 0.1 mm 7 mps 764 mmHg 64%
    17:00 +9°C° 0.1 mm 7 mps 765 mmHg 69%
    18:00 +8°C° 0.3 mm 7 mps 765 mmHg 70%
    19:00 +8°C° 0.3 mm 7 mps 766 mmHg 71%
    20:00 +6°C° 0.3 mm 7 mps 766 mmHg 72%
    21:00 +6°C° 0.1 mm 7 mps 767 mmHg 71%
    22:00 +6°C° 0.1 mm 7 mps 767 mmHg 70%
    23:00 +5°C° 0.1 mm 6 mps 768 mmHg 69%

    31 May, Thursday

    Time Temperature Precipitation Wind Pressure Humidity
    00:00 +5°C° 0 mm 6 mps 768 mmHg 69%
    01:00 +6°C° 0 mm 5 mps 768 mmHg 68%
    02:00 +5°C° 0 mm 5 mps 768 mmHg 68%
    03:00 +5°C° 0 mm 5 mps 768 mmHg 67%
    04:00 +5°C° 0 mm 4 mps 768 mmHg 67%
    05:00 +5°C° 0 mm 4 mps 768 mmHg 66%
    06:00 +5°C° 0 mm 4 mps 769 mmHg 66%
    07:00 +7°C° 0 mm 3 mps 769 mmHg 66%
    08:00 +7°C° 0 mm 3 mps 769 mmHg 65%
    09:00 +8°C° 0 mm 3 mps 769 mmHg 61%
    10:00 +9°C° 0 mm 3 mps 770 mmHg 56%
    11:00 +10°C° 0 mm 3 mps 770 mmHg 52%
    12:00 +10°C° 0 mm 2 mps 770 mmHg 51%
    13:00 +10°C° 0 mm 2 mps 769 mmHg 50%
    14:00 +10°C° 0 mm 2 mps 769 mmHg 49%
    15:00 +10°C° 0 mm 2 mps 769 mmHg 52%
    16:00 +9°C° 0 mm 2 mps 769 mmHg 56%
    17:00 +8°C° 0 mm 2 mps 769 mmHg 59%
    18:00 +8°C° 0 mm 2 mps 769 mmHg 61%
    19:00 +9°C° 0 mm 1 mps 769 mmHg 64%
    20:00 +8°C° 0 mm 1 mps 769 mmHg 67%
    21:00 +8°C° 0 mm 1 mps 769 mmHg 69%
    22:00 +7°C° 0 mm 1 mps 769 mmHg 70%
    23:00 +7°C° 0 mm 1 mps 769 mmHg 72%

    1 June, Friday

    Time Temperature Precipitation Wind Pressure Humidity
    00:00 +7°C° 0 mm 1 mps 769 mmHg 74%
    01:00 +6°C° 0 mm 1 mps 769 mmHg 75%
    02:00 +6°C° 0 mm 1 mps 768 mmHg 76%
    03:00 +6°C° 0 mm 1 mps 768 mmHg 76%
    04:00 +5°C° 0 mm 2 mps 768 mmHg 77%
    05:00 +5°C° 0 mm 2 mps 768 mmHg 77%
    06:00 +5°C° 0 mm 2 mps 768 mmHg 76%
    07:00 +5°C° 0 mm 2 mps 768 mmHg 76%
    08:00 +5°C° 0 mm 2 mps 768 mmHg 75%
    09:00 +6°C° 0 mm 2 mps 768 mmHg 68%
    10:00 +8°C° 0 mm 2 mps 768 mmHg 60%
    11:00 +9°C° 0 mm 2 mps 768 mmHg 53%
    12:00 +10°C° 0 mm 2 mps 768 mmHg 50%
    13:00 +10°C° 0 mm 2 mps 767 mmHg 47%
    14:00 +12°C° 0 mm 2 mps 767 mmHg 45%
    15:00 +10°C° 0 mm 2 mps 767 mmHg 47%
    16:00 +9°C° 0 mm 2 mps 767 mmHg 49%
    17:00 +9°C° 0 mm 1 mps 767 mmHg 52%
    18:00 +8°C° 0 mm 1 mps 767 mmHg 53%
    19:00 +8°C° 0 mm 1 mps 767 mmHg 55%
    20:00 +7°C° 0 mm 1 mps 768 mmHg 57%
    21:00 +7°C° 0 mm 1 mps 768 mmHg 58%
    22:00 +7°C° 0 mm 1 mps 768 mmHg 58%
    23:00 +7°C° 0 mm 1 mps 768 mmHg 59%

    2 June, Saturday

    Time Temperature Precipitation Wind Pressure Humidity
    00:00 +6°C° 0 mm 1 mps 768 mmHg 60%
    01:00 +6°C° 0 mm 1 mps 768 mmHg 62%
    02:00 +6°C° 0 mm 1 mps 768 mmHg 63%
    03:00 +6°C° 0 mm 1 mps 768 mmHg 64%
    04:00 +6°C° 0 mm 1 mps 768 mmHg 65%
    05:00 +5°C° 0 mm 1 mps 768 mmHg 66%
    06:00 +5°C° 0 mm 1 mps 769 mmHg 66%
    07:00 +5°C° 0 mm 1 mps 769 mmHg 66%
    08:00 +6°C° 0 mm 1 mps 769 mmHg 66%
    09:00 +7°C° 0 mm 1 mps 770 mmHg 61%
    10:00 +9°C° 0 mm 1 mps 770 mmHg 55%
    11:00 +10°C° 0 mm 2 mps 770 mmHg 50%
    12:00 +11°C° 0 mm 1 mps 770 mmHg 48%
    13:00 +11°C° 0 mm 1 mps 769 mmHg 47%
    14:00 +12°C° 0 mm 1 mps 769 mmHg 45%
    15:00 +11°C° 0 mm 1 mps 769 mmHg 49%
    16:00 +10°C° 0 mm 1 mps 769 mmHg 54%
    17:00 +9°C° 0 mm 1 mps 769 mmHg 58%
    18:00 +9°C° 0 mm 1 mps 769 mmHg 60%
    19:00 +8°C° 0 mm 1 mps 769 mmHg 62%
    20:00 +7°C° 0 mm 2 mps 769 mmHg 64%
    21:00 +8°C° 0 mm 1 mps 769 mmHg 67%
    22:00 +7°C° 0 mm 1 mps 770 mmHg 70%
    23:00 +7°C° 0 mm 1 mps 770 mmHg 73%
    Show more